Regional Weather Roundup
Issued by NWS Midland/Odessa, TX

Skip options and go directly to product.
Home | Oldest Version | Previous Version | Current Version | All | Text Only | Save Text | Print | Product List | Glossary On

Skip product version selection by date and time.   
858
ASUS44 KMAF 301510
RWRMAF
MIDLAND AREA WEATHER ROUNDUP
NATIONAL WEATHER SERVICE MIDLAND TX
1000 AM CDT FRI SEP 30 2016

...IN SOUTHWEST TEXAS AND SOUTHEAST NEW MEXICO...

CITY           SKY/WX    TMP DP  RH WIND       PRES   REMARKS
ALPINE         CLOUDY    65  54  66 CALM      30.36S
ANDREWS        FAIR      59  49  69 S9        30.30R
ARTESIA        SUNNY     61  54  77 SE14      30.28F
BIG SPRING     MOSUNNY   63  48  58 SE6       30.30S
CARLSBAD       SUNNY     62  53  72 SE5       30.27S
DRYDEN           N/A     66  53  63 VRB7      30.25R
FORT STOCKTON  SUNNY     66  51  58 SE12      30.26S
GUAD PASS      CLOUDY    61  48  62 NE7       30.37R
HOBBS          SUNNY     59  48  67 SE8       30.31R
MARFA          CLOUDY    63  53  70 SE5       30.35R
MIDLAND AIRPK  SUNNY     65  48  53 S10       30.29R
MIDLAND INTL   SUNNY     65  47  52 SE10      30.28R
ODESSA         SUNNY     63  48  58 MISG      30.29R
PECOS          MOSUNNY   65  53  65 NE6       30.26S
PRESIDIO       CLOUDY    71  56  58 NE14      30.23R
SEMINOLE       CLOUDY    62  50  64 S7        30.31R
SNYDER           N/A     63  48  57 SE6       30.28S
WINK           MOSUNNY   66  48  52 SE10      30.26R
$$
...OTHER STATIONS IN TEXAS...

CITY           SKY/WX    TMP DP  RH WIND       PRES   REMARKS
ABILENE        SUNNY     60  54  80 CALM      30.28R
AMARILLO       SUNNY     60  46  59 S15       30.28S
AUSTIN         MOSUNNY   68  55  63 NE5       30.22R
BROWNSVILLE    PTSUNNY   83  73  72 VRB6      30.11R
CORPUS CHRISTI MOSUNNY   75  58  55 NE14      30.17R
DALLAS FTW     MOSUNNY   68  55  63 N6        30.22S
DEL RIO        SUNNY     69  58  67 VRB3      30.23S
EL PASO        CLOUDY    60  57  89 N7        30.30R
HOUSTON INT    MOSUNNY   71  57  61 N6        30.19R
LUBBOCK        MOSUNNY   62  47  57 S8        30.29S
SAN ANGELO     SUNNY     61  53  75 CALM      30.26S
SAN ANTONIO    MOSUNNY   70  52  52 NE6       30.23R
WACO           SUNNY     68  55  63 N6        30.23R
WICHITA FALLS  NOT AVBL
$$
...OTHER LOCATIONS IN NEW MEXICO...

CITY           SKY/WX    TMP DP  RH WIND       PRES   REMARKS
ALAMAGORDO     CLOUDY    59  59 100 S18       30.29F
ALBUQUERQUE    MOSUNNY   61  53  75 SW3       30.34R
CANNON AFB     CLOUDY    62  50  64 SW13      30.27F
CLOVIS         CLOUDY    61  48  63 SW13G18   30.28S
HOLLOMAN AFB   DRIZZLE   60  60 100 SE5       30.27S
ROSWELL        CLOUDY    63  48  58 S14       30.26F
RUIDOSO        CLOUDY    54  52  94 MISG      30.40S
SANTA FE       SUNNY     61  49  64 VRB3      30.37S
TRUTH OR CONSE MOSUNNY   60  54  80 CALM      30.31S
TUCUMCARI      CLOUDY    67  48  50 SW18G31   30.21F
$$

USA.gov is the U.S. government's official web portal to all federal, state and local government web resources and services.